Date String (YYYY-MM-DD hh:mm:ss) UTC,Instrument flags,absolute air pressure of the measurement (hPa),sample flow rate (lpm),inlet stack bypass flow (lpm),air temperature of the measurement (°C),ambient temperature measured by the external sensor (°C),aerosol sample conditioner tube jacket temperature (°C),OPC LED temperature (°C),internal box temperature (°C),relative humidity of the measurement (%),span deviation,mass concentration of particles derived from Lorenz-Mie calculation of OPC scattering (μg/m³),mass concentration of particles derived from Lorenz-Mie calculation of OPC scattering (μg/m³),mass concentration of particles derived from Lorenz-Mie calculation of OPC scattering (μg/m³)
DateTimeUTC,F1_M11,P_M11,Q1_M11,Q2_M11,T1_M11,T2_M11,T3_M11,T4_M11,T5_M11,U1_M11,ZSPAN_M11,X2_M11,X0_M11,X1_M11
2023-10-27 20:00:00,SystemResetWarning,0831.6,5.00,000.00,021.8,020.8,000.0,030.1,023.5,15.0,0000.3,0008.01,0011.61,0007.44
2023-10-27 20:01:00,SystemResetWarning,0831.6,5.00,000.00,021.9,020.8,000.0,030.1,023.5,15.1,-000.2,0008.01,0011.64,0007.44
2023-10-27 20:02:00,SystemResetWarning,0831.5,5.00,000.00,021.9,020.9,000.0,030.2,023.5,15.1,-000.2,0008.00,0011.63,0007.43
2023-10-27 20:03:00,SystemResetWarning,0831.4,5.00,000.00,021.9,020.9,000.0,030.2,023.6,15.1,-000.6,0008.00,0012.18,0007.41
2023-10-27 20:04:00,SystemResetWarning,0831.5,5.00,000.00,021.9,020.9,000.0,030.2,023.6,15.4,-000.6,0008.02,0012.52,0007.39
2023-10-27 20:05:00,SystemResetWarning,0831.5,5.00,000.00,021.9,020.9,000.0,030.2,023.6,15.7,-000.8,0008.01,0012.61,0007.33
2023-10-27 20:06:00,SystemResetWarning,0831.5,5.00,000.00,022.0,021.0,000.0,030.2,023.6,15.9,-001.5,0007.97,0012.35,0007.28
2023-10-27 20:07:00,SystemResetWarning,0831.4,5.00,000.00,022.0,021.0,000.0,030.2,023.7,15.7,-001.5,0007.93,0012.25,0007.25
2023-10-27 20:08:00,SystemResetWarning,0831.5,5.00,000.00,022.0,021.0,000.0,030.2,023.6,15.4,-000.9,0007.92,0012.36,0007.21
2023-10-27 20:09:00,SystemResetWarning,0831.4,5.00,000.00,022.0,021.0,000.0,030.3,023.6,15.3,-000.8,0007.91,0012.44,0007.19
2023-10-27 20:10:00,SystemResetWarning,0831.4,5.00,000.00,022.0,020.9,000.0,030.3,023.6,15.3,-000.2,0007.89,0012.47,0007.17
2023-10-27 20:11:00,SystemResetWarning,0831.4,5.00,000.00,022.0,020.9,000.0,030.3,023.6,15.4,0000.2,0007.86,0011.94,0007.17
2023-10-27 20:12:00,SystemResetWarning,0831.4,5.00,000.00,022.0,020.9,000.0,030.3,023.6,15.3,-000.3,0007.86,0012.50,0007.17
2023-10-27 20:13:00,SystemResetWarning,0831.4,5.00,000.00,022.0,020.9,000.0,030.3,023.7,15.3,-000.1,0007.89,0013.10,0007.19
2023-10-27 20:14:00,SystemResetWarning,0831.3,5.00,000.00,022.0,021.0,000.0,030.3,023.7,15.3,0000.4,0007.86,0012.57,0007.19
2023-10-27 20:15:00,SystemResetWarning,0831.3,5.00,000.00,022.0,020.9,000.0,030.3,023.6,15.4,0000.4,0007.83,0012.16,0007.18
2023-10-27 20:16:00,SystemResetWarning,0831.3,5.00,000.00,022.0,020.9,000.0,030.3,023.6,15.5,0000.8,0007.86,0012.22,0007.22
2023-10-27 20:17:00,SystemResetWarning,0831.4,5.00,000.00,022.0,021.0,000.0,030.3,023.7,15.5,0001.1,0007.88,0012.29,0007.25
2023-10-27 20:18:00,SystemResetWarning,0831.3,5.00,000.00,022.0,021.0,000.0,030.4,023.7,15.7,0001.0,0007.90,0012.37,0007.26
2023-10-27 20:19:00,SystemResetWarning,0831.2,5.00,000.00,022.1,021.0,000.0,030.4,023.6,15.8,0001.1,0007.91,0012.33,0007.30
2023-10-27 20:20:00,SystemResetWarning,0831.3,4.99,000.00,022.0,020.9,000.0,030.4,023.6,15.8,0001.3,0007.93,0012.25,0007.35
2023-10-27 20:21:00,SystemResetWarning,0831.3,5.00,000.00,022.0,020.9,000.0,030.4,023.6,15.6,0001.2,0007.98,0012.21,0007.40
2023-10-27 20:22:00,SystemResetWarning,0831.3,5.01,000.00,022.1,020.9,000.0,030.4,023.7,15.8,0001.0,0007.97,0012.40,0007.41
2023-10-27 20:23:00,SystemResetWarning,0831.3,5.01,000.00,022.1,021.0,000.0,030.4,023.7,15.7,0001.6,0007.96,0012.18,0007.42
2023-10-27 20:24:00,SystemResetWarning,0831.3,5.00,000.00,022.0,021.0,000.0,030.4,023.6,15.7,0001.7,0007.98,0011.77,0007.42
2023-10-27 20:25:00,SystemResetWarning,0831.3,4.99,000.00,022.1,021.0,000.0,030.4,023.7,15.6,0001.7,0008.04,0012.11,0007.42
2023-10-27 20:26:00,SystemResetWarning,0831.2,5.00,000.00,022.1,021.0,000.0,030.4,023.7,15.3,0001.9,0008.10,0012.32,0007.45
2023-10-27 20:27:00,SystemResetWarning,0831.2,5.01,000.00,022.1,021.1,000.0,030.4,023.8,15.3,0002.0,0008.11,0012.31,0007.46
2023-10-27 20:28:00,SystemResetWarning,0831.3,5.01,000.00,022.1,021.1,000.0,030.4,023.7,15.2,0001.9,0008.13,0012.32,0007.47
2023-10-27 20:29:00,SystemResetWarning,0831.3,5.00,000.00,022.1,021.1,000.0,030.4,023.7,15.2,0001.5,0008.14,0012.26,0007.49
2023-10-27 20:30:00,SystemResetWarning,0831.2,4.99,000.00,022.1,021.1,000.0,030.4,023.7,15.2,0001.2,0008.18,0012.38,0007.50
2023-10-27 20:31:00,SystemResetWarning,0831.2,5.00,000.00,022.1,021.1,000.0,030.4,023.7,15.2,0001.1,0008.19,0012.48,0007.50
2023-10-27 20:32:00,SystemResetWarning,0831.1,5.00,000.00,022.1,021.1,000.0,030.5,023.8,15.3,0001.0,0008.19,0012.44,0007.51
2023-10-27 20:33:00,SystemResetWarning,0831.2,5.00,000.00,022.2,021.1,000.0,030.5,023.8,15.3,0000.9,0008.24,0012.24,0007.54
2023-10-27 20:34:00,SystemResetWarning,0831.2,5.00,000.00,022.2,021.1,000.0,030.5,023.8,15.4,0000.9,0008.29,0012.11,0007.59
2023-10-27 20:35:00,SystemResetWarning,0831.1,5.00,000.00,022.2,021.2,000.0,030.5,023.8,15.4,0000.6,0008.34,0012.13,0007.63
2023-10-27 20:36:00,SystemResetWarning,0831.1,5.00,000.00,022.2,021.2,000.0,030.5,023.9,15.8,0000.4,0008.37,0012.08,0007.68
2023-10-27 20:37:00,SystemResetWarning,0831.1,5.00,000.00,022.2,021.3,000.0,030.5,023.9,15.9,0000.3,0008.41,0012.07,0007.72
2023-10-27 20:38:00,SystemResetWarning,0831.1,5.00,000.00,022.3,021.3,000.0,030.5,024.0,15.8,0000.4,0008.46,0012.62,0007.73
2023-10-27 20:39:00,SystemResetWarning,0831.2,5.00,000.00,022.3,021.4,000.0,030.5,024.0,15.9,0000.4,0008.46,0013.00,0007.76
2023-10-27 20:40:00,SystemResetWarning,0831.1,5.00,000.00,022.3,021.4,000.0,030.5,024.1,15.7,0001.0,0008.49,0013.05,0007.77
2023-10-27 20:41:00,SystemResetWarning,0831.2,4.99,000.00,022.4,021.5,000.0,030.6,024.1,15.8,0001.6,0008.48,0012.97,0007.79
2023-10-27 20:42:00,SystemResetWarning,0831.1,5.00,000.00,022.4,021.5,000.0,030.6,024.1,15.7,0001.5,0008.48,0013.15,0007.80
2023-10-27 20:43:00,SystemResetWarning,0831.1,4.99,000.00,022.4,021.6,000.0,030.6,024.2,15.6,0001.3,0008.51,0013.21,0007.79
2023-10-27 20:44:00,SystemResetWarning,0831.1,5.00,000.00,022.5,021.6,000.0,030.6,024.2,15.7,0000.9,0008.54,0013.30,0007.79
2023-10-27 20:45:00,SystemResetWarning,0831.0,5.00,000.00,022.5,021.7,000.0,030.7,024.3,15.7,0000.8,0008.55,0013.02,0007.79
2023-10-27 20:46:00,SystemResetWarning,0831.1,5.00,000.00,022.5,021.7,000.0,030.7,024.2,15.7,0001.1,0008.52,0013.49,0007.78
2023-10-27 20:47:00,SystemResetWarning,0831.1,5.00,000.00,022.5,021.7,000.0,030.7,024.2,15.7,0001.0,0008.51,0014.19,0007.78
2023-10-27 20:48:00,SystemResetWarning,0831.1,5.00,000.00,022.6,021.7,000.0,030.7,024.2,15.8,0000.8,0008.49,0014.21,0007.79
2023-10-27 20:49:00,SystemResetWarning,0831.1,5.00,000.00,022.6,021.7,000.0,030.8,024.2,15.8,0000.4,0008.49,0014.14,0007.81
2023-10-27 20:50:00,SystemResetWarning,0831.1,5.00,000.00,022.6,021.6,000.0,030.8,024.2,15.9,0000.4,0008.48,0014.11,0007.81
2023-10-27 20:51:00,SystemResetWarning,0831.1,5.00,000.00,022.6,021.6,000.0,030.8,024.3,16.1,-000.2,0008.49,0014.78,0007.82
2023-10-27 20:52:00,SystemResetWarning,0831.2,5.00,000.00,022.6,021.7,000.0,030.8,024.3,16.0,-000.6,0008.51,0014.89,0007.85
2023-10-27 20:53:00,SystemResetWarning,0831.1,5.00,000.00,022.6,021.7,000.0,030.8,024.4,16.0,-000.7,0008.53,0014.72,0007.87
2023-10-27 20:54:00,SystemResetWarning,0831.1,5.01,000.00,022.7,021.8,000.0,030.8,024.4,16.0,-000.0,0008.53,0014.96,0007.89
2023-10-27 20:55:00,SystemResetWarning,0831.1,5.00,000.00,022.7,021.8,000.0,030.9,024.4,16.1,0000.3,0008.48,0015.51,0007.89
2023-10-27 20:56:00,SystemResetWarning,0831.1,5.00,000.00,022.7,021.9,000.0,030.9,024.5,16.1,0000.4,0008.45,0015.41,0007.88
2023-10-27 20:57:00,SystemResetWarning,0831.1,5.00,000.00,022.7,021.9,000.0,030.9,024.5,16.1,-000.1,0008.45,0015.29,0007.89
2023-10-27 20:58:00,SystemResetWarning,0831.2,4.99,000.00,022.8,022.0,000.0,030.9,024.5,16.0,0000.2,0008.45,0014.39,0007.88
2023-10-27 20:59:00,SystemResetWarning,0831.1,5.00,000.00,022.8,022.0,000.0,030.9,024.6,15.9,0000.4,0008.45,0014.13,0007.88
